Location: La Brionne
(46.1728°N, 1.7849°E)
Time: 05:28:20
(UTC+00:00)

Cosmos 2333 Rocket - Visible Passes

Search period start: 18 October 2021 00:00
Search period end: 28 October 2021 00:00
Orbit: 839 x 863 km, 70.8° (Epoch: 17 October)

Date Brightness Start Highest point End Pass type
(mag) Time Alt. Az. Time Alt. Az. Time Alt. Az.
18 Oct 4.3 04:40:12 10° N 04:44:59 26° NE 04:49:46 10° ESE visible
19 Oct 4.3 04:27:59 10° N 04:32:46 26° NE 04:37:32 10° ESE visible
20 Oct 4.2 04:15:44 10° N 04:20:32 26° NE 04:25:17 10° ESE visible
21 Oct 4.2 04:03:30 10° N 04:08:17 26° NE 04:13:04 10° ESE visible
21 Oct 2.3 05:47:20 10° NNW 05:53:01 63° WSW 05:58:42 10° SSE visible
22 Oct 4.2 03:51:16 10° N 03:56:03 26° NE 04:00:50 10° ESE visible
22 Oct 2.3 05:35:05 10° NNW 05:40:47 63° WSW 05:46:28 10° SSE visible
22 Oct 4.2 18:47:32 10° SSE 18:47:58 12° SSE 18:47:58 12° SSE visible
23 Oct 4.2 03:39:01 10° N 03:43:49 26° NE 03:48:36 10° ESE visible
23 Oct 2.3 05:22:51 10° NNW 05:28:33 63° WSW 05:34:13 10° S visible
23 Oct 3.5 18:35:18 10° SSE 18:37:49 21° SE 18:37:49 21° SE visible
23 Oct 4.3 20:18:27 10° SW 20:19:57 18° SW 20:19:57 18° SW visible
24 Oct 4.2 03:26:47 10° N 03:31:35 26° NE 03:36:21 10° ESE visible
24 Oct 2.2 05:10:37 10° NNW 05:16:18 63° WSW 05:21:59 10° S visible
24 Oct 3.0 18:23:04 10° SSE 18:27:36 27° ESE 18:27:36 27° ESE visible
24 Oct 3.5 20:06:12 10° SW 20:09:42 35° WSW 20:09:42 35° WSW visible
25 Oct 4.2 03:14:33 10° N 03:19:21 26° NE 03:24:07 10° ESE visible
25 Oct 2.2 04:58:23 10° NNW 05:04:05 63° WSW 05:09:45 10° S visible
25 Oct 3.0 18:10:49 10° SSE 18:15:31 28° ESE 18:17:13 24° ENE visible
25 Oct 2.9 19:53:58 10° SW 19:59:20 51° WNW 19:59:20 51° WNW visible
26 Oct 4.1 03:03:17 14° N 03:07:07 26° NE 03:11:54 10° ESE visible
26 Oct 2.2 04:46:09 10° NNW 04:51:51 63° WSW 04:57:31 10° S visible
26 Oct 3.0 17:58:35 10° SSE 18:03:17 28° ESE 18:06:38 16° ENE visible
26 Oct 2.9 19:41:44 10° SW 19:47:15 51° WNW 19:48:43 41° NNW visible
26 Oct 5.1 21:30:37 10° WNW 21:30:49 10° WNW 21:30:49 10° WNW visible
27 Oct 4.1 02:52:40 21° NNE 02:54:52 26° NE 02:59:40 10° ESE visible
27 Oct 2.2 04:34:47 15° NW 04:39:37 63° WSW 04:45:17 10° S visible
27 Oct 3.1 17:46:20 10° SSE 17:51:02 28° ESE 17:55:48 10° NE visible
27 Oct 2.9 19:29:30 10° SW 19:35:01 51° WNW 19:37:53 27° N visible
27 Oct 5.0 21:18:23 10° WNW 21:19:57 12° NW 21:19:57 12° NW visible
